METEOR 1-27

导读

METEOR 1-27是独联体(CIS)继承自苏联航天遗产的一颗极轨气象卫星,隶属于经典“流星-1”气象卫星系列,于1977年4月5日发射入轨。作为低地球轨道气象观测卫星,它承担着大气层观测、全球天气预报与气候数据采集任务,搭载多光谱及红外探测设备,可监测云层分布、海面温度等气象要素,为早期全球气象合作和灾害预警提供了关键数据支持,至今仍保持在轨运行。

基本信息
目录编号:
9903
目录名称:
METEOR 1-27
国际标识:
1977-024A
轨道中心:
EARTH
卫星名称:
METEOR 1-27
卫星全名:
--
卫星状态:
在轨 (已飞行17965 天)
发射日期:
1977-04-05 UTC
国别 :
俄罗斯(独联体) (CIS)
星等 :
--
轨道信息
数据来源 国际轨道数据 AOE轨道数据
星历时间 2026-06-12T15:00:49+0800
13小时前
查看轨道信息
2026-06-11T01:00:00+0800
2天前
查看轨道信息
半长轴 7241.856km 7241.855km
偏心率 0.0038287 0.0038129
轨道倾角 81.272° 81.272°
近地点辐角 22.159° 26.792°
升交点赤经 142.383° 143.916°
平近点角 338.122° 225.332°
近地点 835.992km 836.105km
远地点 891.446km 891.331km
周期 102.220分钟 102.220分钟
每日圈数 14.087306 14.087309
详细信息
使用方式:
暂无
2D轨道图
3D轨道图
轨道高度分析图
轨道倾角分析图
轨道综合分析图
查看轨道综合分析图